Satellite: NOAA 10
Catalog number: 16969
Epoch time:      101231.99960748
Element set:     999
Inclination:       98.6807 deg
RA of node:       218.8022 deg
Eccentricity:    0.0011527
Arg of perigee:   242.2899 deg
Mean anomaly:     117.7111 deg
Mean motion:   14.26341665 rev/day
Decay rate:    3.5299E-006 rev/day^2
Epoch rev:           77582
Checksum:              359

Satellite: NOAA 11
Catalog number: 19531
Epoch time:      101232.01261919
Element set:     834
Inclination:       98.9582 deg
RA of node:       303.8363 deg
Eccentricity:    0.0011524
Arg of perigee:   319.4588 deg
Mean anomaly:      40.5724 deg
Mean motion:   14.13975292 rev/day
Decay rate:    2.0099E-006 rev/day^2
Epoch rev:           66540
Checksum:              311

Satellite: NOAA 12
Catalog number: 21263
Epoch time:      101231.96240606
Element set:     285
Inclination:       98.5770 deg
RA of node:       222.6885 deg
Eccentricity:    0.0012343
Arg of perigee:   171.8172 deg
Mean anomaly:     188.3210 deg
Mean motion:   14.24080219 rev/day
Decay rate:    3.3199E-006 rev/day^2
Epoch rev:           53324
Checksum:              291

Satellite: NOAA 14
Catalog number: 23455
Epoch time:      101231.99684606
Element set:     860
Inclination:       99.1820 deg
RA of node:       226.0865 deg
Eccentricity:    0.0009263
Arg of perigee:   333.2185 deg
Mean anomaly:      26.8502 deg
Mean motion:   14.12737358 rev/day
Decay rate:    2.2199E-006 rev/day^2
Epoch rev:           34214
Checksum:              312

Satellite: NOAA 15
Catalog number: 25338
Epoch time:      101231.95251451
Element set:     323
Inclination:       98.5982 deg
RA of node:       257.8086 deg
Eccentricity:    0.0011466
Arg of perigee:   107.9320 deg
Mean anomaly:     252.3111 deg
Mean motion:   14.23628800 rev/day
Decay rate:    2.5199E-006 rev/day^2
Epoch rev:           16986
Checksum:              310

Satellite: NOAA 16
Catalog number: 26536
Epoch time:      101227.70893451
Element set:     452
Inclination:       98.8298 deg
RA of node:       172.4404 deg
Eccentricity:    0.0011756
Arg of perigee:    67.6276 deg
Mean anomaly:     292.6049 deg
Mean motion:   14.11209801 rev/day
Decay rate:    1.6400E-006 rev/day^2
Epoch rev:            4629
Checksum:              314



               EA1BGK
               Op Juan Carlos.Tfn 609-883511
               Cartelle, Terra de Celanova. IN62AE.
               EA1BGK@EA1BGK.EAOR.ESP.EU.\EA1BGK@latinmail.com 
               Club Radioaficionados de Ourense,EA1RKO.FeDiEA.EANet.    
               -----------------------------------------------------     


Read previous mail | Read next mail


 24.10.2025 16:09:52lGo back Go up